CZ-6A DEB, 54283

Orbit data source: Space-Track

CZ-6A DEB, 54283 is space debris in SSO originally from a launch on Fri, 11 Nov 2022 UTC launched from the Taiyaun Space Center, China (TSC). Debris objects in space refer to the collection of defunct objects orbiting the Earth. Examples of debris include non-operational satellites, rocket bodies, and fragments generated from explosions, collisions, or faulty payload assembly.

Loading next visibility...
Identifier
54283, 2022-151AA
Orbit
SSO
Country
Flag of CNCN / PRC
Related business
Manufacturer
SAST
Mission
Spacecraft
Bus & Motor
Unknown
Mass
Unknown
Launch date (UTC)
2022-11-11 (4 years ago)
Launch vehicle
Unknown
Launch site
Taiyaun Space Center, China (TSC)
Object type
Payload
Rocket body
Debris
Shape & HBR
Unknown shape, 0.2 m
Radar Cross Section
Medium (>0.1 m² and <1 m²)

Expand to show TLE details & history
Last TLE update: 3 days ago

TLE from 3 days ago
0 CZ-6A DEB
1 54283U 22151AA  26170.93439999  .00000121  00000-0  94006-4 0  9991
2 54283  98.8343 165.7167 0052386 346.9369  13.0441 14.08998152184683
Epoch: 2026-06-19T22:25Z
TLE epoch observation values (Epoch: 2026-06-19T22:25:32.159Z)
Latitude
Longitude
-78.82355°
Altitude
828.747 km
Speed
7.458 km/s
True Right ascension
11h 02m 52s
True Declination
0° 00' 00"
Sunlit
Object was in daylight at epoch
Visualization orbit readout
Latitude
Unknown
Longitude
Unknown
Altitude
Unknown
Speed
Unknown
Apparent Right ascension
Unknown
Apparent Declination
Unknown
Sunlit
N/A
Visualization observer readout
Local Sidereal Time
21:41:36
Azimuth
Unknown
Elevation
Unknown
Doppler factor
Unknown
Orbital elements
Apogee altitude
897.899 km
Perigee altitude
822.064 km
Semi-major axis
7,238.118 km
Eccentricity
0.00524
Inclination
98.8343°
RAAN
165.7167°
Arg. of periapsis
346.9369°
True anomaly
13.18046°
Mean anomaly
13.0441°
Eccentric anomaly
13.11219°
Mean motion
3.52456 °/min
Orbital period
102.14 mins
BSTAR
0.000094006
Loading maneuver chart data...
Computing Atmospheric mass density...
Loading historical data...
Loading historical data...
Loading historical data...
Loading historical data...
Loading historical data...
Loading historical data...
Loading historical data...

Documentation

Showing up to 5 results
|